{"data":{"norad_id":60238,"epoch":"2026-05-25T03:54:56.039904Z","epoch_age_seconds":60935,"freshness":"FRESH","line1":"1 60238U 24128D   26145.16314861  .00007337  00000+0  43774-3 0  9991","line2":"2 60238  61.9883 287.5234 0041513 126.6378 233.8545 15.11276337102980","mean_motion":15.11276337,"eccentricity":0.0041513,"inclination_deg":61.9883,"raan_deg":287.5234,"arg_perigee_deg":126.6378,"mean_anomaly_deg":233.8545,"bstar":0.00043774,"rev_number":10298,"period_min":95.283699264326,"perigee_km":503.619163504,"apogee_km":560.99381160377,"semimajor_km":6910.4434875539,"source":"CELESTRAK","updated_at":"2026-05-25T13:38:01.930090Z"}}